KMAW

Details ICAO KMAW
Name MALDEN MUNI
Region United States
Timezone America/Chicago (UTC-5.0)
Plans Departing 0
Arriving 4
Stats Elevation 295 ft / 90 m (AMSL)
Location 36.600559° -89.992193°
Runways 3
Magnetic Variation 1.527° W
Sunrise 2018-05-21 10:49:53 UTC / 2018-05-21 05:49:53 Local
Sunset 2018-05-22 01:06:07 UTC / 2018-05-21 20:06:07 Local
Advertisement - Login to hide

Runways

ID Width Length Bearing (true) Bearing (mag) Surface Threshold Offset Overrun Length
04 150 ft / 46 m 5,002 ft / 1,525 m 45.51° 47.04° Asphalt 0 ft / 0 m 0 ft / 0 m
13 80 ft / 24 m 5,000 ft / 1,524 m 135.75° 137.28° Asphalt 0 ft / 0 m 0 ft / 0 m
18 100 ft / 30 m 5,022 ft / 1,531 m 180.61° 182.14° Asphalt 0 ft / 0 m 0 ft / 0 m
22 150 ft / 46 m 5,002 ft / 1,525 m 225.52° 227.05° Asphalt 0 ft / 0 m 0 ft / 0 m
31 80 ft / 24 m 5,000 ft / 1,524 m 315.75° 317.28° Asphalt 0 ft / 0 m 0 ft / 0 m
36 100 ft / 30 m 5,022 ft / 1,531 m 0.60° 2.13° Asphalt 0 ft / 0 m 0 ft / 0 m

Map

Weather


0- 5 10 15 20 25 30 35+ Temperature / ° C

Clouds and Precipitation
Forecast for 2018-05-22 00:00 UTC. Updated 5 hours ago

Ground ~20,000 ft ~40,000 ft Winds

METAR

KMAW 220355Z AUTO 00000KT 10SM CLR 24/22 A3003 RMK AO2

TAF

Not found

Frequencies

Recorded 119.82 MHz AWOS 3
Unicom 122.80 MHz CTAF/UNICOM
Warning: Do not use this data for real-world aviation or navigation. No guarantee of current accuracy is given.